Theta_e
309 308 308 307 306 306 306 304 303 303 302 302 301 300 298 298 298 298 296 295 294 293 293 293 292 292 293 293 293 293 293 293 292 292 290 289 288 288 287 287 287 286 286 286 286 286 286 286 286 286 286 286 285 285 284 284 284 283 282 281 281 279 279 278 277 281 286 287 286 286 286 284 284 283 281 281 282 280 279 279 279 279 280 280 281
309 309 308 307 307 306 305 303 302 301 301 300 300 299 298 297 297 297 296 295 294 293 293 292 292 292 292 292 293 293 292 292 292 291 290 289 288 287 287 287 286 286 286 286 286 285 285 286 286 286 285 285 284 284 284 284 283 283 282 281 280 279 278 277 277 276 282 286 286 285 285 283 282 283 281 279 279 278 277 278 278 278 279 279 279
310 309 307 307 307 305 304 303 302 300 299 299 299 298 297 296 295 296 295 294 293 292 292 292 292 292 292 292 292 292 292 292 292 290 289 288 288 287 287 286 286 286 286 286 285 285 285 286 285 285 285 284 284 283 283 283 283 282 282 280 279 279 277 276 276 275 277 282 283 283 283 282 280 280 279 278 278 277 276 276 277 278 278 278 278
309 307 307 306 306 304 304 303 301 300 299 298 297 296 295 294 293 294 294 293 292 292 291 292 292 292 292 292 292 292 292 292 291 290 289 288 287 287 287 286 286 286 286 286 285 285 285 285 285 284 284 283 283 283 283 283 283 282 282 281 279 278 277 275 275 275 274 277 280 281 281 280 279 279 276 276 277 276 275 276 276 277 277 278 278
308 307 306 306 305 304 304 303 301 300 300 299 298 296 295 294 293 292 292 292 292 291 291 291 291 291 292 292 292 292 292 292 291 289 288 288 287 287 286 286 286 286 286 285 285 285 285 285 284 284 283 283 282 282 283 283 282 282 281 281 279 277 276 275 274 274 274 273 277 280 279 276 277 277 274 274 275 275 275 276 276 277 277 277 277
307 306 306 305 305 304 303 303 302 301 300 299 298 297 295 294 292 292 291 291 291 290 290 291 291 291 291 292 292 292 292 291 290 289 288 287 287 287 286 286 286 286 285 285 285 285 285 284 284 283 283 282 282 282 282 282 281 280 279 279 277 276 275 275 274 274 275 274 274 276 277 275 274 275 274 274 274 274 275 275 275 276 276 276 277
307 306 306 306 305 304 303 303 302 301 300 299 298 297 295 294 293 292 291 290 290 290 290 290 290 291 291 291 291 291 291 291 290 288 288 287 287 286 286 286 285 285 285 285 284 284 284 284 283 283 282 282 282 282 282 282 280 279 278 276 276 275 274 275 275 275 275 275 274 274 275 274 274 274 274 274 274 274 274 275 275 276 276 276 277
308 307 306 305 305 304 303 302 301 300 299 298 297 296 295 294 292 291 291 290 290 290 290 290 290 290 291 291 291 291 291 290 289 288 287 287 287 286 286 285 285 285 285 284 284 284 284 284 283 282 282 282 282 282 282 281 279 278 276 275 275 275 275 275 275 275 275 275 275 274 274 274 274 274 274 274 274 274 274 275 275 276 276 276 276
308 307 306 305 305 304 302 301 300 299 298 297 296 296 295 293 292 291 290 289 289 289 289 289 290 290 291 291 291 290 290 289 288 287 287 287 286 286 286 285 285 285 285 284 284 284 284 283 283 282 282 281 282 282 280 278 277 276 276 276 275 276 276 276 275 275 275 275 275 275 275 275 275 274 274 274 275 275 275 275 275 275 276 276 277
308 307 306 306 304 303 302 301 300 299 297 297 296 295 294 292 291 290 289 289 289 289 289 289 289 290 290 290 290 290 289 288 287 287 287 286 286 286 286 285 285 285 285 284 284 284 284 283 282 282 281 281 282 281 278 276 275 275 276 276 276 276 276 276 276 276 276 276 276 276 275 275 275 275 275 275 275 275 275 275 275 276 276 277 277
308 307 307 305 304 302 301 300 299 298 297 296 295 294 293 292 291 290 289 289 289 288 288 289 289 290 290 290 290 289 289 287 287 287 286 286 286 286 286 285 285 285 284 284 284 284 283 283 282 281 281 281 281 280 278 276 275 275 275 276 276 276 276 276 276 277 276 276 276 276 276 276 276 276 276 276 276 276 276 276 276 276 277 277 278
308 307 306 305 303 302 301 300 299 298 297 296 295 294 292 291 291 290 289 289 289 288 288 289 289 289 290 289 289 289 288 287 286 286 286 286 286 286 286 286 286 285 285 284 284 283 282 282 281 281 281 281 281 280 278 276 275 275 275 276 276 276 277 277 277 277 277 277 277 277 277 277 276 276 276 276 276 276 276 277 277 277 277 278 279
307 306 305 304 303 302 301 300 299 298 297 295 294 293 292 291 291 290 290 289 288 288 288 288 289 289 289 289 289 288 287 286 286 286 286 286 286 286 287 287 286 285 284 283 283 282 282 281 280 281 281 281 281 279 278 276 276 275 275 276 276 276 276 276 277 277 277 277 277 277 276 276 276 276 276 276 276 276 276 277 277 277 277 278 279
306 306 305 304 303 302 301 300 299 297 296 295 294 293 292 291 290 290 289 289 288 288 288 288 289 289 289 289 288 287 286 286 287 286 286 286 286 286 287 286 286 285 284 283 282 282 281 280 280 281 281 281 281 279 277 276 276 276 276 276 276 276 276 276 276 276 276 276 276 276 276 276 276 276 276 276 276 276 276 276 276 277 277 277 278
305 305 304 303 303 302 301 300 298 297 295 294 293 292 291 290 290 289 289 289 288 288 288 288 288 288 288 288 287 286 286 287 287 286 286 286 286 286 286 285 285 284 283 282 281 281 280 280 280 281 281 280 280 278 276 276 276 276 276 276 275 275 276 276 276 276 276 276 276 276 276 276 276 276 276 276 276 276 276 277 277 277 277 277 278
305 304 304 304 303 302 301 299 298 296 295 294 293 292 291 290 290 289 289 288 288 288 288 288 288 288 288 287 286 287 287 287 286 286 286 286 285 285 285 285 284 283 282 281 280 280 280 280 280 280 280 279 278 277 275 275 276 275 275 275 276 276 276 276 276 276 276 276 277 277 277 277 277 277 277 277 277 278 278 278 278 277 277 278 278
305 304 304 304 303 302 301 299 297 296 295 294 293 292 291 290 290 289 289 288 288 287 287 288 288 288 287 286 287 287 287 287 286 286 285 285 285 285 285 284 283 282 281 280 280 280 280 280 280 280 279 278 277 276 275 275 275 275 275 276 276 276 276 275 275 275 275 276 276 276 276 276 276 277 277 277 278 278 278 278 278 278 278 278 279
305 305 304 304 303 302 300 299 297 296 295 294 293 292 291 290 289 289 289 288 287 287 287 288 287 287 287 286 287 287 287 287 286 286 285 285 284 284 284 283 282 281 280 280 280 279 280 280 280 279 277 277 277 276 275 275 275 275 276 276 275 275 275 274 274 274 274 274 275 275 275 275 276 276 276 276 277 277 277 278 278 278 278 278 279
306 306 305 304 302 301 300 298 297 296 295 294 293 291 291 290 289 288 288 287 287 287 287 287 287 286 286 286 286 287 287 287 286 286 285 285 284 284 283 282 281 280 280 280 279 280 280 280 279 278 277 277 276 275 275 275 276 275 275 275 274 274 274 274 274 274 274 274 274 274 274 274 274 274 274 274 275 275 276 276 277 277 277 277 278
307 306 305 303 301 300 299 298 297 296 295 293 292 291 290 290 289 288 287 286 286 287 287 286 286 286 286 286 286 287 287 286 286 286 285 284 283 283 282 281 281 280 280 280 280 280 280 279 279 278 278 277 275 274 275 275 275 275 274 274 274 274 274 274 273 273 273 273 273 273 273 273 273 273 273 274 274 274 275 275 276 276 277 277 277
305 304 303 302 301 300 298 297 296 294 293 292 291 290 289 289 288 288 287 286 286 286 286 286 285 285 285 286 286 286 286 286 286 285 284 283 282 282 281 281 280 280 280 280 280 280 279 279 278 278 277 276 274 274 274 275 274 274 274 274 273 273 273 273 273 273 273 272 272 273 273 273 272 272 272 273 273 274 275 276 277 277 277 277 278
303 303 302 301 299 298 297 296 295 293 292 290 290 289 288 288 287 287 286 285 285 285 285 285 285 285 285 285 285 285 285 286 285 284 283 282 282 281 280 280 279 279 280 280 279 279 278 278 277 277 276 274 274 274 274 274 274 274 274 274 273 273 272 272 273 273 273 273 273 273 273 272 271 270 271 271 272 273 275 276 277 277 278 278 278
302 301 301 300 299 298 296 295 294 292 291 290 289 288 287 287 286 286 285 285 285 285 284 284 284 285 285 285 285 285 285 285 284 283 282 281 281 280 280 279 279 280 280 279 279 279 278 277 276 276 274 274 274 274 274 274 274 274 274 273 272 272 272 273 273 273 273 273 272 271 270 270 270 270 271 271 271 272 273 274 275 276 277 278 278
300 300 300 299 298 297 296 294 293 292 290 289 288 287 287 286 286 285 285 285 285 285 284 284 285 285 286 285 285 286 286 285 283 282 281 280 280 279 279 279 280 280 279 279 279 278 277 276 275 274 274 274 274 274 274 274 274 274 274 273 273 273 274 274 273 272 271 271 270 269 269 269 270 270 270 271 271 271 272 272 273 274 275 276 277
300 299 299 298 297 296 295 293 292 291 289 288 287 286 286 286 285 285 284 284 285 285 284 285 285 286 285 286 286 286 285 283 282 281 280 280 279 279 279 279 279 279 279 279 278 277 276 275 274 274 274 274 274 274 274 274 274 274 274 274 274 274 274 273 271 270 269 269 269 269 269 269 270 270 270 270 271 271 271 271 272 273 274 275 276
299 298 298 297 297 296 294 293 291 290 288 287 286 286 285 285 285 284 284 284 284 284 285 285 286 285 285 286 287 285 283 282 281 280 280 279 279 279 279 279 279 279 278 278 277 276 275 274 274 274 274 274 274 274 274 274 274 274 274 274 274 274 273 271 270 269 269 269 269 269 269 269 270 270 270 270 271 271 271 271 271 272 273 274 275
298 298 298 297 296 295 294 293 292 290 288 287 285 284 284 285 285 284 284 284 284 284 285 286 286 285 286 286 286 284 282 281 280 280 279 279 279 279 279 279 279 278 277 277 276 275 274 274 274 274 274 274 274 274 274 274 274 274 274 274 274 273 272 271 270 269 269 269 269 269 269 269 270 270 270 270 271 271 271 271 271 271 272 273 274
298 298 297 297 296 295 294 293 292 291 289 287 285 284 284 284 284 284 284 284 284 284 285 286 286 287 288 287 285 282 281 280 280 280 279 279 279 280 280 279 278 277 276 275 275 274 274 274 274 274 274 274 275 275 274 274 274 274 274 274 274 273 272 271 270 269 269 269 269 269 269 269 270 270 270 270 271 271 271 271 271 271 271 272 273
297 297 297 296 296 295 294 293 292 290 289 287 285 284 284 283 283 283 284 284 285 285 286 287 287 288 288 288 285 283 281 280 280 279 279 279 279 280 279 278 277 276 275 274 274 274 273 274 274 274 274 275 275 275 274 274 273 273 273 274 274 273 272 271 270 269 269 269 269 269 269 269 270 270 270 270 270 270 270 270 270 270 271 271 272
296 296 296 296 296 295 294 293 292 290 289 287 285 284 282 282 282 282 283 284 285 286 287 288 288 289 288 286 283 281 281 280 279 278 279 279 279 278 277 276 275 275 274 274 273 274 274 274 274 274 274 274 274 274 273 273 273 273 273 273 273 273 271 270 269 269 269 269 269 269 269 269 270 270 270 270 270 270 270 270 270 270 270 271 271
296 296 296 296 296 295 294 293 291 289 287 286 285 283 281 281 281 281 282 284 285 285 285 285 286 286 285 283 281 279 278 278 278 278 278 278 277 276 276 275 274 274 274 273 273 273 273 274 274 274 274 274 273 273 273 272 272 272 272 273 273 272 271 270 269 269 269 269 269 269 269 269 270 270 270 270 270 270 270 270 270 270 270 270 271
294 295 295 295 294 292 291 290 288 286 284 282 281 281 281 280 279 279 281 283 283 283 282 281 282 282 281 280 280 279 278 277 278 278 278 277 276 276 275 274 274 274 274 273 273 273 273 273 274 274 273 273 273 272 272 272 271 271 272 272 272 272 271 270 269 269 269 269 269 269 269 269 270 270 270 270 270 270 270 270 270 270 270 270 270
293 293 293 293 292 290 288 287 285 284 282 281 280 279 280 280 279 279 279 279 279 279 278 279 280 281 280 279 278 278 278 278 278 277 277 276 276 275 274 274 274 274 273 273 273 273 273 273 273 273 273 272 272 272 272 271 271 271 271 271 272 271 271 270 269 269 269 269 269 269 269 270 270 270 270 270 270 270 270 270 270 270 270 270 270
292 292 292 292 291 290 288 286 284 283 282 280 279 278 278 279 280 279 278 276 276 276 276 277 279 279 279 278 277 277 277 277 277 277 276 275 275 274 274 274 273 273 272 272 272 273 273 273 273 273 272 272 271 271 271 271 271 271 271 271 271 271 270 270 269 269 269 269 269 269 270 270 270 270 270 270 270 270 270 270 270 270 270 270 270
291 290 290 290 289 289 288 286 285 283 281 279 278 278 277 278 279 280 278 277 276 276 276 276 277 278 277 277 276 276 276 276 276 276 275 275 274 274 273 273 273 272 272 272 272 273 273 273 273 272 272 271 271 271 271 271 271 271 271 271 271 271 270 270 269 269 269 269 269 269 270 270 270 270 270 270 270 270 270 270 270 270 269 270 270
289 289 288 288 288 287 286 286 284 282 280 278 277 276 276 277 278 278 278 278 279 279 278 277 276 276 276 275 275 275 275 275 275 275 275 274 274 273 273 273 272 272 272 272 272 272 273 273 273 272 271 271 271 271 271 271 270 270 271 271 271 271 270 270 269 269 269 269 269 269 270 270 270 270 270 270 269 270 270 270 270 269 269 270 270
288 288 287 287 287 285 284 283 282 280 279 277 276 275 276 277 278 278 278 279 280 280 279 277 276 275 274 274 273 273 273 274 275 275 274 274 273 273 273 272 272 272 272 272 273 273 273 273 272 271 271 271 271 271 271 271 270 270 270 270 271 271 270 269 269 269 269 269 269 270 270 270 270 270 270 269 269 269 269 269 269 270 269 269 270
287 287 287 286 285 283 282 280 279 277 276 275 275 275 276 276 277 278 279 279 280 280 279 278 277 276 275 274 273 273 274 275 275 274 274 273 273 273 273 272 272 272 273 273 273 273 273 272 272 271 271 271 271 271 271 271 270 270 270 270 271 271 270 269 269 269 269 269 269 270 270 270 270 270 269 269 269 269 269 269 269 269 269 269 269
286 285 285 284 283 281 280 279 277 275 274 274 274 274 275 276 277 278 279 280 280 280 280 279 277 276 275 275 275 275 275 275 274 273 273 273 273 273 273 272 272 272 273 273 273 273 272 272 272 271 271 271 271 271 271 271 270 270 270 270 270 271 270 269 268 268 269 269 270 270 270 270 270 270 269 269 269 269 269 269 269 269 269 269 269
285 284 283 282 280 279 278 277 276 275 274 274 274 274 275 277 278 279 280 281 281 280 280 279 277 276 275 275 275 275 274 273 273 273 273 273 273 273 272 272 272 272 272 273 273 272 272 272 271 271 271 271 271 271 271 270 270 270 269 270 270 270 270 269 268 268 269 269 270 270 270 270 270 269 269 269 269 269 269 269 269 269 269 269 269
284 282 281 280 278 277 276 275 275 274 274 273 274 274 275 277 279 280 281 282 281 280 279 278 276 275 274 274 274 273 273 273 273 273 273 272 272 272 272 272 272 272 272 272 272 272 272 271 271 271 271 271 271 271 271 271 270 270 269 270 270 270 270 269 268 268 269 270 270 270 270 270 269 269 269 269 269 269 269 269 269 269 269 269 269
282 281 279 277 276 276 275 274 273 273 273 273 274 275 277 279 281 282 282 281 280 279 278 276 275 274 273 272 272 272 272 272 272 272 272 272 272 272 272 272 272 272 272 272 272 272 271 271 271 271 271 271 271 271 271 271 270 270 269 269 270 270 269 268 268 269 269 270 270 270 270 270 269 269 269 269 269 269 269 269 269 269 269 269 269
280 279 277 276 275 274 274 273 273 273 273 273 275 277 279 281 281 281 281 280 279 278 277 274 273 272 272 272 272 272 272 272 272 272 272 272 272 272 272 272 272 272 272 272 272 271 271 271 271 271 271 271 271 271 270 270 270 270 269 269 269 269 269 268 268 269 269 270 270 270 270 269 269 269 269 269 269 269 269 269 269 269 269 269 269
278 277 276 275 274 273 273 273 273 273 273 275 277 279 280 280 281 280 280 279 278 276 275 273 272 272 272 272 272 272 272 271 271 271 272 272 272 272 272 272 272 272 272 271 271 271 271 271 271 271 271 271 271 270 270 270 270 270 269 269 270 269 269 268 268 269 269 270 270 270 270 269 269 269 269 269 268 268 269 269 269 269 268 268 268
276 275 274 273 272 272 272 272 273 273 274 276 278 278 278 279 280 280 279 278 276 275 273 273 273 273 273 273 272 271 271 271 271 272 272 272 272 272 272 272 271 271 271 271 271 271 270 270 270 270 271 271 271 270 270 270 270 270 270 270 270 269 269 268 268 269 269 270 270 270 269 269 269 268 268 269 268 268 268 268 268 268 268 268 268
274 274 273 272 272 271 272 272 273 274 276 277 277 277 277 278 279 279 277 276 275 274 273 273 273 272 272 272 271 271 271 272 272 272 272 272 272 272 271 271 271 271 271 271 271 270 270 270 270 271 271 271 271 270 270 270 270 270 270 270 270 269 269 268 268 269 269 270 270 270 269 269 268 268 268 268 268 268 268 268 268 268 268 268 268
273 273 272 272 272 272 272 273 274 274 275 275 276 277 278 278 278 277 276 275 274 273 272 272 271 271 271 271 271 271 271 272 272 272 272 272 272 271 271 271 271 271 271 270 270 270 270 270 271 271 271 270 271 271 270 271 271 270 270 270 270 269 269 268 268 269 269 270 270 270 269 269 268 268 268 268 268 268 268 268 268 268 268 268 268
272 272 271 271 272 272 272 273 273 274 274 275 276 277 278 277 276 275 274 273 273 272 272 271 271 271 271 271 271 271 272 272 272 272 272 272 272 271 271 271 270 270 270 270 270 270 270 270 271 271 270 270 270 271 271 271 271 270 270 270 270 270 270 269 268 269 269 269 269 269 269 269 268 268 268 268 268 268 268 268 268 268 268 268 268
271 271 271 271 272 272 272 272 273 274 275 277 277 278 277 276 275 274 273 272 272 271 271 271 271 271 271 271 271 272 272 272 272 272 272 272 271 271 271 270 270 270 270 270 270 270 270 270 270 270 270 270 270 270 271 271 271 271 270 270 270 271 270 269 268 269 269 269 269 269 269 269 268 268 268 269 269 268 268 268 268 268 268 268 268
270 271 271 271 271 272 272 273 274 275 276 277 278 278 276 274 273 272 271 271 271 271 270 271 271 271 271 271 271 272 272 272 272 272 271 271 271 271 270 270 270 270 270 270 270 270 270 270 270 270 270 270 270 270 270 270 270 270 270 270 271 271 270 268 268 269 269 269 269 269 269 269 269 268 268 269 269 269 268 268 268 268 268 268 268
270 270 270 271 272 272 273 273 274 275 276 277 277 276 274 273 272 271 271 270 270 270 270 270 271 271 271 271 271 272 272 272 271 271 271 271 270 270 270 270 270 270 270 270 270 270 270 270 270 270 270 270 270 270 270 270 270 270 270 270 271 271 270 268 268 269 269 269 269 269 269 269 269 268 268 269 269 269 269 268 268 268 268 268 268
Wind_Speed
44 44 44 46 46 46 46 46 46 46 46 45 45 46 47 45 43 43 44 44 44 43 42 40 38 36 32 29 26 24 24 23 23 24 24 24 24 23 21 21 20 20 19 19 18 19 20 21 22 24 25 27 27 27 28 29 31 33 33 35 36 35 35 36 42 54 63 61 60 61 57 57 60 58 57 59 58 55 55 55 52 52 53 52 51
45 46 47 47 47 47 48 49 49 49 49 48 47 48 48 48 45 44 44 45 45 44 43 41 39 37 33 30 27 26 24 24 24 25 24 24 24 22 21 21 20 20 20 19 19 19 20 22 24 24 26 27 28 28 30 30 31 33 33 33 35 35 34 36 39 48 58 62 60 60 58 56 59 59 56 59 60 56 54 55 54 52 50 48 48
48 49 49 49 49 50 50 50 50 51 50 50 50 49 49 49 48 46 45 45 45 44 43 42 40 38 34 31 28 27 25 25 25 25 25 25 24 22 21 21 20 20 20 20 19 19 21 24 25 25 26 28 29 29 30 32 32 32 32 31 31 32 30 31 36 42 52 58 59 58 58 57 58 59 57 57 58 54 51 51 51 49 46 45 46
52 52 51 51 51 51 51 51 52 52 52 51 51 50 50 50 50 48 46 45 45 45 44 42 40 38 35 32 29 27 26 26 26 26 26 25 23 22 21 21 21 21 21 21 20 21 23 25 25 27 28 29 30 30 31 32 32 32 32 30 28 28 26 26 30 35 41 51 56 55 56 58 58 57 56 55 54 52 48 46 45 45 45 44 44
53 53 52 51 51 51 52 52 54 54 53 52 51 50 51 51 50 49 47 46 45 45 45 43 41 39 35 32 30 28 27 27 27 27 26 25 23 22 21 21 21 22 21 21 21 23 24 26 27 28 29 30 31 32 33 33 33 32 31 31 28 28 29 29 31 34 38 47 54 55 55 55 57 57 53 51 53 50 47 46 43 42 45 47 48
51 51 50 49 50 51 51 52 53 54 53 52 51 51 51 51 51 50 49 47 46 46 46 44 42 39 36 33 31 29 29 28 28 27 26 25 23 22 21 21 21 21 21 22 22 24 25 27 29 29 30 32 32 33 33 33 32 31 30 30 30 30 33 34 36 38 41 47 53 56 57 52 53 57 51 47 50 50 49 52 51 48 48 51 53
46 47 47 48 49 49 49 50 51 52 52 52 51 51 51 51 51 50 49 48 47 46 46 45 42 39 36 34 32 30 30 29 28 27 25 24 22 21 21 20 21 21 21 22 23 24 27 28 30 30 30 32 33 32 33 32 30 30 30 31 32 34 36 38 40 41 44 49 52 55 59 55 51 56 54 48 50 52 49 52 56 55 51 49 51
42 44 46 47 47 46 47 48 49 51 51 51 51 51 51 51 51 50 50 48 47 47 46 45 42 39 37 34 32 31 30 29 28 26 24 22 21 20 20 19 20 20 21 22 23 25 28 29 30 31 31 31 32 32 32 31 31 32 31 32 34 37 40 41 43 44 46 51 54 55 58 58 54 56 55 49 50 51 47 47 53 57 57 54 54
40 43 45 46 45 45 46 47 48 49 50 51 51 51 50 50 50 50 49 48 47 47 46 44 42 40 37 35 33 31 30 28 26 24 22 21 20 19 19 19 19 20 21 23 24 26 28 30 31 31 31 31 31 31 29 27 28 31 33 34 36 38 41 42 44 46 48 51 54 54 56 58 59 59 55 49 50 52 49 48 52 56 59 59 58
41 42 45 45 44 44 45 46 47 48 49 50 50 50 50 50 50 49 49 47 47 47 46 45 42 40 37 35 32 31 30 28 25 23 21 20 19 18 18 18 19 20 21 23 24 26 28 30 31 31 30 30 29 28 26 23 24 28 31 32 34 36 40 42 44 46 48 51 53 54 56 59 61 60 57 53 48 47 48 48 50 54 54 56 57
42 42 43 43 44 44 44 44 46 47 48 48 48 49 49 49 49 49 48 47 48 48 47 46 44 41 38 35 33 31 29 27 24 22 20 19 17 16 17 18 19 20 22 24 25 27 28 30 30 30 29 29 28 27 25 24 25 27 29 31 32 34 37 40 44 45 47 50 53 53 54 58 60 57 53 50 45 43 46 47 47 50 50 49 51
43 42 42 43 43 43 43 44 45 46 47 47 48 48 48 49 49 48 48 48 49 49 48 47 44 41 38 35 33 31 28 26 23 21 19 17 16 17 17 18 20 23 24 25 26 27 29 29 29 29 28 27 27 27 27 27 27 28 30 32 33 33 35 37 42 45 47 50 53 55 56 57 59 57 50 45 45 44 46 45 42 43 46 46 47
43 42 42 42 42 41 42 43 44 45 46 47 47 48 48 48 49 48 48 48 49 50 49 47 44 41 38 35 33 30 27 25 21 18 18 17 16 17 19 21 23 24 25 25 26 27 29 29 28 28 27 26 26 27 27 29 30 30 32 34 35 36 37 37 40 43 46 49 53 58 60 56 57 59 53 47 48 48 47 47 45 45 48 50 51
43 42 41 41 40 41 42 42 43 45 45 46 47 47 48 48 47 47 47 48 50 50 49 46 44 40 37 34 32 29 25 23 20 18 18 17 16 17 19 21 23 24 24 25 26 27 27 27 28 27 26 25 25 27 28 31 33 34 36 38 40 41 42 43 43 43 44 47 52 57 59 57 57 60 58 52 52 52 52 53 53 53 54 57 60
42 41 41 40 40 41 42 42 44 45 45 46 47 47 47 47 47 47 47 48 50 50 48 46 43 39 36 33 30 26 24 21 20 19 18 17 16 17 19 21 23 24 24 25 25 27 26 26 26 26 25 25 25 26 28 29 32 35 37 38 40 42 43 45 46 46 47 49 52 55 57 57 57 58 58 55 53 54 54 56 58 57 57 59 63
41 41 40 40 41 42 42 43 44 44 45 46 46 47 47 47 47 46 46 48 49 50 48 46 42 39 36 32 28 25 23 21 20 19 18 17 17 18 19 21 23 23 24 24 25 25 25 24 24 24 24 25 25 25 25 27 31 34 36 38 41 42 45 46 44 44 44 45 47 49 51 53 54 54 55 54 53 54 53 56 58 56 55 59 63
40 40 40 40 42 42 42 43 44 44 45 45 46 47 47 47 47 47 47 49 51 51 49 45 42 39 35 32 28 26 24 21 19 19 18 17 17 18 20 21 22 23 23 24 24 24 23 23 23 23 23 24 24 23 23 26 30 33 36 41 43 44 47 47 42 38 37 38 41 44 46 48 49 50 51 51 51 50 51 56 59 53 51 56 60
38 39 39 41 42 42 42 43 43 43 44 44 45 46 46 46 47 47 48 50 51 52 49 46 43 39 34 31 28 25 23 21 20 19 18 17 18 19 20 21 22 22 23 23 23 23 23 21 20 20 22 23 22 21 22 25 29 33 37 41 44 46 48 46 42 40 39 40 40 41 41 43 44 46 48 48 48 46 47 54 58 53 51 56 60
34 36 38 40 40 40 41 42 42 43 44 44 45 45 45 45 46 47 48 50 51 51 49 46 42 38 34 31 28 25 22 21 20 20 18 18 19 20 20 21 21 22 22 23 23 22 21 20 18 18 20 21 20 19 21 25 29 33 36 38 43 46 45 42 42 43 44 44 44 44 45 46 47 49 51 51 49 47 47 51 55 54 56 60 61
31 34 36 38 39 39 40 41 42 43 43 43 44 45 45 45 45 47 49 51 51 50 48 44 41 37 34 31 27 24 23 21 20 20 19 20 20 20 20 20 20 21 21 22 22 21 20 19 18 18 18 18 19 20 23 26 28 31 33 36 40 41 39 39 41 42 44 47 49 49 49 48 48 49 49 48 46 45 44 46 49 51 54 58 60
32 34 35 37 38 39 40 41 42 42 42 43 43 44 45 45 45 47 50 52 52 49 46 42 39 35 32 28 26 24 22 21 21 20 20 20 20 20 19 19 19 20 21 21 20 19 19 19 19 18 17 18 19 22 24 25 26 29 31 33 34 34 35 38 42 44 44 46 46 46 45 45 45 44 43 41 41 41 40 41 43 45 48 53 56
32 33 34 36 37 39 40 40 41 42 42 43 43 44 45 46 46 49 52 53 51 47 44 41 37 34 31 28 25 24 22 22 21 21 21 20 19 18 18 18 19 19 19 20 18 17 17 18 18 17 17 19 21 22 24 24 25 28 29 28 28 30 32 36 40 41 41 42 42 43 43 44 44 42 41 40 39 38 38 39 40 42 45 48 51
29 32 33 35 37 39 40 41 41 42 43 44 44 45 46 47 48 51 53 53 50 46 42 40 37 34 31 28 26 24 23 23 22 21 21 19 18 16 17 17 18 18 18 18 16 16 16 16 17 17 18 20 22 22 23 24 25 26 26 26 27 28 31 34 35 36 38 40 41 43 43 43 43 42 41 41 40 39 39 40 41 41 43 46 48
26 29 31 33 36 38 40 41 41 42 43 44 44 46 47 48 50 53 54 53 50 47 43 40 37 34 32 29 27 26 25 24 23 22 21 19 16 16 16 17 16 16 16 15 14 14 15 14 15 16 18 20 21 22 22 22 23 24 24 25 27 28 30 32 33 35 37 39 41 43 43 41 40 39 39 40 40 41 43 44 45 44 44 46 48
23 26 29 31 34 36 38 40 41 42 43 44 45 48 49 50 52 55 55 54 51 48 44 41 37 34 32 29 28 27 26 25 24 22 20 17 16 16 16 16 15 14 13 13 12 12 12 12 13 15 18 19 20 20 20 20 21 22 24 25 27 28 29 30 32 34 37 39 40 42 42 39 37 36 38 40 41 43 45 46 47 46 45 45 47
23 24 26 29 31 35 37 39 41 42 42 44 46 49 50 51 53 56 56 53 50 47 44 40 37 34 31 29 28 27 27 25 23 21 19 17 16 16 16 15 13 11 11 11 11 10 10 12 14 16 18 18 19 19 20 20 21 22 24 25 27 27 28 29 31 33 36 38 40 41 41 39 38 39 40 42 43 44 45 47 48 47 45 43 44
24 24 25 27 30 34 36 38 40 42 43 45 47 50 51 52 54 57 57 54 50 47 44 41 38 35 32 29 28 28 27 25 23 21 19 17 17 17 15 13 10 8 9 10 9 9 11 12 14 16 17 17 17 18 19 21 22 23 24 26 27 27 27 28 29 31 34 37 40 41 41 40 39 41 43 45 46 45 44 45 47 47 44 42 42
27 26 26 26 29 32 35 38 40 43 44 46 49 52 54 54 57 59 59 57 53 49 45 41 38 35 32 31 30 29 27 26 24 21 19 17 17 16 13 9 7 6 7 9 9 9 11 13 14 16 17 17 17 18 19 21 22 24 26 27 27 28 28 28 29 31 33 36 39 42 42 41 40 42 44 47 47 46 45 45 46 46 44 42 42
30 29 29 28 30 33 36 39 42 44 46 48 50 53 54 56 58 58 56 53 50 46 42 39 36 34 31 31 31 30 28 26 23 20 18 17 16 13 9 6 5 5 5 7 9 10 11 13 14 16 17 18 19 20 21 22 24 25 27 27 28 29 30 31 32 34 35 37 40 42 43 42 41 43 46 49 48 47 46 45 45 45 44 42 41
34 34 33 33 33 35 38 40 43 46 48 50 53 54 55 55 55 54 52 49 45 42 39 36 34 32 31 29 27 24 24 23 21 19 17 15 13 10 7 5 6 6 6 7 9 10 11 13 14 15 16 18 19 20 22 24 26 28 29 29 30 30 31 32 34 35 37 39 40 42 44 43 43 45 49 51 50 48 47 46 45 45 43 41 41
39 38 38 38 38 40 41 43 47 50 51 53 56 57 57 55 53 51 49 46 42 39 36 32 30 29 29 28 26 24 22 21 20 19 16 14 11 9 7 7 7 7 6 7 9 10 11 12 13 14 16 17 19 20 22 24 27 29 31 31 31 31 32 34 35 37 39 40 41 43 44 43 44 47 50 51 51 50 49 48 47 44 42 40 40
42 42 41 42 42 44 45 47 49 52 54 55 57 58 59 57 54 50 47 44 41 38 35 32 30 29 28 27 27 26 25 22 20 18 16 13 11 9 8 8 8 6 5 6 8 9 10 11 12 14 16 17 19 20 22 24 27 29 31 32 33 32 33 35 36 38 40 41 43 45 46 45 46 49 52 52 51 51 51 49 48 45 42 40 39
42 43 43 44 45 46 47 49 50 52 55 56 57 58 59 60 58 52 44 39 38 36 34 33 32 30 29 27 25 25 24 22 20 18 15 13 12 10 9 8 7 5 4 6 7 8 9 10 12 14 15 17 19 20 22 24 26 28 30 32 33 34 34 35 37 39 40 42 43 45 46 46 47 51 53 53 51 51 51 49 47 45 42 41 40
40 43 44 45 46 47 48 50 51 52 54 55 57 59 59 59 58 54 47 40 36 33 30 29 29 29 28 27 25 24 23 21 20 18 15 14 12 10 9 7 6 5 5 5 6 7 8 10 12 14 15 17 18 21 23 24 26 28 30 32 33 34 34 36 38 40 42 43 44 46 46 47 49 52 54 54 53 51 51 49 47 45 43 42 43
38 42 44 46 48 48 48 49 51 52 53 55 57 58 57 56 56 55 51 46 42 36 32 29 28 27 27 26 25 24 22 21 19 17 15 14 12 10 9 7 5 5 5 5 5 6 8 10 12 14 16 17 18 21 23 25 26 28 30 32 34 34 35 37 39 41 43 44 46 47 47 48 51 53 53 53 53 52 51 50 48 45 44 44 45
38 42 45 48 49 49 49 50 51 52 54 55 56 55 55 55 55 54 51 47 44 40 37 33 30 27 25 24 23 22 22 21 19 18 16 14 12 11 9 8 6 6 6 5 4 6 8 11 12 14 15 17 19 21 23 24 26 28 30 32 33 34 36 38 40 42 44 46 47 48 48 50 53 55 55 54 54 52 51 50 49 46 45 45 44
39 43 46 49 50 50 50 50 50 51 53 54 54 53 53 54 54 52 50 47 45 42 40 38 35 32 29 26 24 23 22 22 20 18 16 14 13 11 10 9 7 7 6 4 3 5 8 10 12 14 16 18 19 21 23 24 26 28 30 31 32 33 35 38 40 42 45 47 48 48 48 51 55 57 56 56 55 53 52 51 49 48 46 45 44
39 43 46 48 49 49 49 48 49 49 50 52 53 53 53 54 53 51 49 47 45 42 41 40 38 37 35 32 29 27 25 22 19 17 16 14 13 12 11 9 8 7 5 2 3 5 8 10 12 14 16 18 20 22 23 25 26 28 31 32 33 33 35 38 41 43 46 48 49 48 49 53 57 59 58 56 54 54 53 51 50 49 47 46 46
40 43 46 47 47 47 48 47 48 49 50 51 52 52 53 54 54 52 50 47 44 41 40 39 38 37 36 34 31 27 24 20 18 17 16 15 14 12 11 10 8 6 3 2 4 6 8 10 12 14 17 19 21 22 23 25 26 28 30 32 33 34 36 39 42 45 47 49 50 50 51 55 59 60 58 56 54 54 53 52 51 49 48 48 49
40 42 45 46 45 46 46 47 48 49 51 53 52 53 54 55 54 51 48 44 41 39 38 37 36 35 32 30 27 24 22 20 19 18 17 15 13 12 11 10 7 5 2 2 4 7 9 11 13 15 17 19 21 23 24 25 26 27 29 32 33 34 36 39 41 44 48 50 51 51 53 58 61 60 59 57 54 53 52 52 51 49 48 49 49
39 42 44 44 44 45 45 46 48 50 52 53 53 54 54 53 51 48 44 42 40 38 36 35 34 32 29 26 24 22 21 20 19 17 16 14 13 12 11 9 6 3 1 3 5 7 9 11 14 16 18 20 22 23 25 26 27 27 29 31 33 34 36 39 41 45 48 51 51 51 54 59 61 60 58 57 56 54 52 51 51 49 48 48 49
39 41 42 42 43 44 45 46 48 49 51 53 54 54 53 51 48 45 43 40 39 37 36 35 33 31 28 27 25 23 21 20 19 17 15 14 14 12 10 7 5 2 1 3 5 7 9 12 14 16 18 20 22 24 26 27 28 28 29 31 33 35 36 39 42 45 48 51 51 51 56 60 60 59 58 57 56 56 54 52 51 50 49 49 49
38 40 41 41 42 43 45 47 48 50 52 54 54 53 52 50 47 44 42 40 38 37 36 35 33 31 30 28 27 24 22 20 19 18 16 16 14 11 8 6 3 2 3 5 7 8 10 12 14 16 18 20 22 23 25 26 28 29 30 31 32 34 36 39 42 45 48 50 51 52 56 60 60 58 58 58 57 56 55 53 52 51 50 50 51
36 37 38 39 40 42 44 47 49 51 53 54 54 53 52 50 47 43 41 39 37 36 36 36 35 33 31 29 27 25 23 21 20 20 18 16 13 9 7 5 2 2 4 6 8 10 11 13 14 15 17 19 20 22 23 25 26 28 29 31 32 33 35 38 41 45 48 49 50 53 57 59 59 58 58 58 57 57 55 53 53 52 52 53 54
34 36 37 38 40 43 45 47 49 51 53 54 54 53 51 48 44 41 38 37 37 36 35 34 33 30 28 27 26 25 24 23 22 20 17 14 11 8 6 4 2 2 4 6 8 10 12 14 15 16 17 18 20 21 22 23 25 26 28 29 30 31 34 37 40 43 46 47 48 52 55 57 57 57 58 58 57 56 55 54 53 53 53 54 55
34 35 37 39 42 44 46 48 50 52 53 54 53 51 47 43 39 38 36 36 36 35 33 31 30 28 26 26 26 25 24 23 21 18 15 12 9 7 5 3 2 3 4 6 8 10 12 14 16 17 18 19 20 21 22 23 24 26 27 28 28 29 32 35 39 42 44 45 47 50 53 55 56 57 57 57 56 55 54 54 53 52 53 54 55
33 36 38 40 43 45 48 50 51 52 51 50 48 46 42 39 37 36 35 34 33 32 31 30 29 28 27 26 26 25 24 22 19 16 13 11 8 6 5 3 2 3 5 6 8 10 12 14 16 18 19 20 21 22 23 24 25 26 27 28 28 28 30 34 38 40 42 44 46 48 50 52 54 56 57 56 56 55 55 54 53 53 54 55 55
34 37 39 41 44 46 49 50 50 50 49 47 45 42 40 38 37 36 35 34 33 32 31 31 30 29 28 27 26 25 23 21 18 15 12 10 8 6 4 3 3 4 5 6 8 10 13 15 17 18 19 21 21 22 23 25 26 27 28 28 28 28 30 33 36 38 40 42 44 46 48 51 53 55 56 55 55 55 55 55 54 54 54 54 55
35 38 40 42 44 46 48 49 49 48 47 45 42 40 38 36 35 34 34 33 32 32 31 31 30 29 28 27 26 24 22 19 17 14 11 9 7 6 4 4 4 4 5 7 9 11 13 15 17 18 19 21 22 23 24 25 26 27 28 29 29 29 31 33 35 36 38 41 43 45 47 50 53 55 55 55 55 55 55 54 55 54 54 54 55
36 38 40 42 43 44 45 46 47 46 44 41 38 37 37 35 34 34 33 33 32 32 31 30 29 28 27 26 25 23 20 18 15 13 10 9 7 6 5 5 5 5 6 8 10 12 14 16 17 19 20 21 22 23 24 25 26 27 28 30 30 30 31 33 34 35 37 39 41 44 47 50 53 54 55 55 55 55 55 55 55 54 53 53 54
35 37 39 41 43 44 44 44 44 42 39 37 35 35 35 35 34 33 33 32 31 31 30 29 28 27 25 24 22 20 18 16 13 11 10 9 7 6 5 5 6 7 8 9 11 13 15 16 18 19 20 21 22 23 24 24 25 26 28 29 30 30 30 32 34 35 36 38 40 43 46 50 52 54 55 55 55 55 55 55 54 54 53 52 52
Wind_Direction
232 233 233 234 234 234 234 234 235 236 236 237 238 239 239 239 239 239 237 235 234 232 231 231 231 232 233 235 239 243 247 253 257 261 263 266 269 271 274 278 279 280 280 282 286 290 295 299 300 301 301 300 300 299 297 294 291 288 284 282 280 276 273 270 269 280 292 297 295 298 300 299 298 297 296 296 296 295 295 294 292 291 290 290 287
236 236 236 236 237 237 237 237 237 237 237 237 238 238 238 238 237 237 236 234 233 232 230 230 229 230 231 234 238 241 246 251 255 258 261 264 267 270 273 275 276 277 278 281 285 289 293 296 298 299 299 298 298 297 295 293 290 288 285 282 280 277 271 269 267 272 285 295 298 299 301 299 298 298 297 295 295 297 297 294 292 292 291 290 287
239 237 237 238 239 239 239 239 239 238 238 238 238 238 238 238 236 235 234 233 232 230 229 228 228 228 230 232 236 239 244 249 253 256 259 262 266 270 272 273 275 277 279 282 286 289 292 294 296 298 297 296 297 296 295 293 291 288 287 285 282 281 275 269 269 270 278 290 297 299 302 301 298 297 297 297 297 298 299 297 295 294 292 290 289
240 238 238 240 241 241 241 241 240 239 239 238 238 238 238 237 236 235 233 232 230 229 227 226 227 227 228 230 233 237 242 247 252 255 258 261 265 269 272 273 274 276 279 283 287 290 291 294 296 296 296 296 297 297 295 293 293 290 289 291 289 289 288 281 278 278 280 289 296 299 302 301 300 301 302 302 302 302 302 300 298 298 296 294 292
242 241 240 241 243 244 244 244 242 241 240 239 239 238 238 237 236 235 233 231 229 227 226 224 225 225 227 229 231 236 241 245 249 253 256 260 264 268 270 271 273 276 281 285 287 290 292 294 296 296 296 297 298 298 297 295 294 294 294 298 301 303 304 300 296 293 290 292 297 302 303 301 302 304 304 304 305 304 303 301 297 295 295 295 294
247 244 242 244 245 246 246 246 246 244 241 240 239 238 238 237 235 234 233 230 227 226 225 225 225 225 226 228 231 235 240 244 248 251 254 258 262 266 267 269 273 277 281 285 288 291 294 296 296 297 297 298 299 298 298 296 296 298 301 306 309 309 307 304 302 299 295 294 296 299 301 300 299 302 302 300 301 301 298 298 297 293 293 295 296
253 248 246 246 246 247 248 248 248 246 242 240 239 238 237 236 235 234 232 230 227 225 225 224 224 225 225 227 230 234 239 242 246 249 252 257 260 263 266 269 274 279 283 287 291 294 296 296 296 297 297 298 300 300 299 298 299 303 307 311 311 308 304 302 300 298 294 294 293 293 296 296 294 297 300 298 298 297 294 296 298 297 296 295 294
255 251 246 245 246 248 249 248 247 245 241 239 238 238 237 236 234 233 231 229 227 225 224 224 223 224 225 227 230 233 238 241 244 247 250 255 259 263 268 272 277 283 286 290 293 295 296 296 296 298 299 299 301 301 301 303 307 309 309 309 306 302 299 297 296 294 292 291 291 289 291 293 290 292 296 296 296 296 293 292 295 296 296 295 293
252 250 246 246 247 248 248 246 244 242 239 238 238 237 237 235 233 231 229 228 226 224 223 223 224 224 224 226 229 233 237 240 243 246 249 255 259 263 270 276 282 287 289 292 296 296 296 296 296 298 300 302 304 304 306 306 303 301 300 300 299 296 295 293 291 291 290 287 287 287 287 288 288 289 291 289 290 294 293 290 291 293 294 295 293
249 248 247 247 247 246 245 244 243 241 239 238 237 236 235 233 231 229 228 226 224 223 221 221 222 223 224 226 229 232 237 240 242 245 249 254 259 265 274 280 284 289 292 295 297 297 297 297 297 300 304 306 307 306 306 302 289 284 285 288 289 288 289 290 288 287 287 285 286 287 286 286 287 287 289 288 288 291 292 288 287 291 293 292 291
247 248 248 247 245 245 244 243 242 241 239 237 236 234 233 232 230 228 226 224 223 221 220 220 221 222 223 226 229 233 236 238 240 244 248 253 259 267 274 281 287 291 294 297 298 299 298 298 300 304 305 305 305 305 307 306 297 286 281 280 282 281 282 284 284 284 284 284 285 285 284 285 287 287 287 290 287 286 289 288 285 288 289 287 287
247 247 247 245 244 244 244 243 242 240 239 237 235 234 232 231 229 228 225 224 222 221 220 220 220 221 222 225 228 232 235 236 238 242 247 253 261 268 276 286 292 295 296 299 301 300 299 300 302 304 303 303 306 310 311 310 307 298 288 282 280 279 278 279 280 282 282 282 283 283 282 283 286 285 284 287 287 285 287 286 281 282 284 281 281
247 246 245 244 244 244 243 243 242 240 238 237 235 233 232 230 229 227 225 223 222 220 219 219 219 220 222 224 228 230 231 233 236 242 247 253 261 272 283 290 292 294 297 298 299 298 298 301 302 301 302 304 308 313 315 313 313 310 303 296 291 288 286 283 280 279 279 280 280 281 282 282 283 283 282 283 284 283 282 281 277 277 278 277 276
246 245 244 244 243 243 243 242 241 239 237 236 234 232 231 230 228 226 224 222 220 219 218 218 219 220 222 224 227 228 228 231 236 242 245 251 261 273 282 286 288 292 294 295 296 297 297 299 299 299 302 305 311 318 319 317 314 310 306 302 297 295 294 292 288 284 281 279 278 279 282 283 282 283 284 284 282 279 278 277 277 276 277 278 278
245 244 243 243 242 242 242 241 239 237 236 234 233 231 230 228 226 224 222 221 220 219 218 218 219 220 222 223 224 225 227 231 236 241 245 251 261 270 277 283 286 289 291 292 293 293 294 295 297 300 306 311 319 321 315 309 305 300 296 294 294 295 296 294 293 292 289 286 284 284 286 286 286 286 287 286 283 281 279 279 279 278 278 280 280
243 243 242 243 243 242 241 240 237 235 234 233 231 230 229 227 226 223 221 220 219 217 217 218 219 220 221 221 222 223 226 231 236 241 247 252 260 268 274 280 283 285 287 289 289 289 292 295 299 305 312 317 321 317 306 299 296 294 294 296 299 299 298 297 295 292 290 287 285 285 285 287 288 286 285 285 284 283 282 281 278 276 275 275 277
242 243 243 243 243 242 241 239 236 235 234 232 231 230 228 227 225 222 220 217 215 215 215 216 217 219 220 219 219 222 225 230 236 242 247 251 258 267 272 275 279 282 284 286 287 288 291 296 303 311 315 316 316 312 303 297 296 299 302 303 303 300 297 297 296 292 289 286 285 285 284 285 285 284 283 282 280 281 281 279 276 275 273 272 273
242 243 244 244 243 242 241 239 237 236 235 233 232 229 227 226 224 222 220 217 214 213 213 214 216 217 217 217 217 220 223 228 235 240 246 252 258 264 269 272 276 280 282 284 285 287 292 299 310 315 312 310 311 310 305 301 302 304 304 302 299 297 297 300 302 302 303 300 295 292 288 286 286 284 283 283 281 279 277 275 276 277 276 274 274
246 247 246 245 243 242 242 240 239 238 236 234 232 229 227 225 224 222 220 217 214 212 212 213 214 214 213 213 213 216 221 226 233 239 245 250 255 261 266 270 274 278 280 281 283 288 296 304 312 313 308 307 312 313 307 304 303 302 301 298 296 297 301 307 310 310 309 304 298 294 291 290 289 287 286 286 283 280 275 272 273 274 274 273 273
251 250 247 244 243 242 241 240 240 239 237 235 232 229 227 225 222 220 218 215 212 212 212 212 212 211 210 210 211 215 220 225 232 239 243 247 252 257 263 267 272 275 276 278 283 291 299 306 311 310 308 313 321 317 308 304 304 300 298 296 296 300 309 312 309 305 302 298 296 297 296 297 298 297 296 294 291 288 282 276 273 272 271 272 272
249 247 246 244 243 241 241 241 240 239 237 234 232 229 226 224 221 218 215 212 210 210 211 210 210 209 209 209 211 214 219 225 232 237 240 243 247 253 260 265 269 271 273 278 285 294 303 308 310 312 318 325 325 316 308 306 304 299 297 299 301 306 310 306 302 302 301 301 302 303 303 306 308 306 303 299 297 296 292 286 281 276 272 270 270
249 248 246 244 243 241 241 240 239 237 235 232 230 228 224 222 220 216 213 210 209 209 209 208 207 206 206 208 210 213 218 226 231 234 237 241 244 248 255 261 263 267 272 279 288 298 304 306 310 322 331 327 319 315 312 310 306 302 304 307 307 306 304 302 303 307 309 310 311 312 312 313 313 308 304 301 299 298 294 290 288 284 278 274 271
253 250 247 245 244 242 240 239 238 236 234 231 229 227 223 219 216 214 211 209 208 208 207 207 206 205 206 207 208 213 220 226 229 231 234 237 239 242 248 253 258 263 271 280 291 298 301 307 320 331 329 319 317 318 316 312 310 310 313 313 309 307 307 308 313 317 318 319 320 319 318 316 312 308 304 303 302 300 297 292 288 285 282 280 277
255 251 248 246 244 243 241 239 238 235 233 230 227 225 222 218 215 212 210 208 208 207 206 206 205 205 206 207 209 214 220 224 226 228 230 232 232 235 241 246 252 260 270 280 292 299 306 317 324 323 319 318 320 319 315 315 317 319 320 318 315 314 316 318 323 326 326 326 324 322 319 314 309 306 305 304 303 302 301 298 294 290 286 281 278
257 252 249 247 245 243 240 238 236 234 232 229 227 223 220 217 213 210 208 208 208 208 206 205 206 206 207 209 213 218 220 221 222 222 224 226 227 230 234 239 246 256 268 282 293 301 310 317 317 317 320 321 319 317 319 325 327 326 325 322 320 322 326 330 333 332 329 327 325 322 319 313 307 305 306 306 306 306 306 305 303 300 297 291 286
260 254 250 249 246 243 240 237 235 233 230 228 227 224 221 217 213 209 207 207 208 207 206 205 205 205 207 211 216 219 219 219 219 219 220 220 221 226 231 234 242 254 267 282 294 305 316 320 321 323 324 320 318 322 328 332 333 332 330 327 327 331 337 340 338 334 329 328 326 323 320 315 312 312 313 313 312 312 311 308 306 304 302 299 295
260 255 251 249 246 243 241 238 235 232 229 226 224 222 221 218 214 210 207 206 205 204 204 205 204 204 207 212 216 217 217 217 217 216 217 216 218 223 229 233 240 256 273 286 302 318 323 324 323 321 317 315 318 327 332 335 337 337 335 333 334 338 343 344 340 335 331 330 328 325 323 320 318 318 319 318 316 314 313 310 307 304 302 299 295
260 255 251 248 247 245 242 240 237 232 228 226 222 220 219 216 214 212 210 208 206 203 202 203 204 207 212 215 215 214 213 214 215 215 213 214 219 223 227 234 248 266 281 294 311 324 321 319 318 314 311 315 323 329 334 338 339 339 338 338 338 340 344 345 342 338 335 331 329 328 327 324 321 321 321 320 318 316 314 311 308 305 302 299 294
257 251 247 245 246 243 240 238 236 232 228 224 222 220 218 215 213 211 211 211 211 209 208 207 207 211 216 219 218 217 215 214 213 212 212 214 220 226 227 236 259 271 280 293 307 315 315 315 314 312 315 323 330 334 338 340 341 341 340 340 341 342 345 346 344 341 337 333 330 330 329 326 323 323 323 321 319 318 316 313 310 307 304 298 293
255 249 245 244 244 241 237 235 233 229 226 223 219 216 215 214 212 211 210 211 211 212 214 215 215 215 215 215 216 218 219 216 209 206 209 212 215 222 228 240 259 271 282 293 302 309 313 314 314 318 326 333 336 339 342 341 341 341 342 342 344 344 346 347 345 341 337 333 331 330 330 328 325 324 325 323 320 319 317 315 312 310 304 298 292
254 249 246 246 244 239 235 232 228 224 222 219 216 211 208 206 206 208 209 209 208 208 210 212 213 212 211 208 205 205 207 208 206 204 205 204 203 208 218 230 245 261 281 295 301 308 313 314 319 328 334 338 341 344 344 343 342 342 341 342 345 347 348 348 347 342 338 335 332 331 331 330 327 326 325 324 321 319 318 316 315 312 306 299 293
254 251 249 246 242 236 231 227 222 218 214 212 210 207 203 199 197 199 203 204 203 202 200 200 200 200 201 203 204 203 200 199 200 200 198 196 197 201 209 224 239 255 279 292 297 304 310 317 328 335 339 342 346 347 347 345 344 344 343 343 345 348 350 349 347 344 340 337 333 333 332 331 328 327 326 325 322 320 319 318 316 313 307 301 295
255 253 250 246 241 235 229 225 221 216 213 210 206 203 200 197 193 191 191 194 196 196 194 194 195 194 195 197 200 201 199 196 196 196 193 192 194 197 206 221 235 251 272 285 290 298 311 324 333 338 342 347 349 349 350 349 347 344 344 344 344 347 350 351 349 346 343 338 334 333 333 331 329 328 327 326 324 321 319 318 316 314 310 304 299
256 254 252 249 244 237 231 226 222 217 213 210 205 200 198 196 193 187 182 179 181 183 185 187 189 191 192 192 192 194 195 194 193 191 189 190 191 195 205 215 224 238 257 273 282 296 319 332 336 339 344 348 349 350 352 352 348 346 344 343 344 347 349 351 351 348 343 339 335 334 334 332 330 329 328 327 325 322 320 318 317 314 310 306 303
253 250 249 246 243 239 234 229 225 219 213 208 203 198 195 193 191 188 182 177 174 173 173 177 183 189 191 188 187 189 190 190 191 189 187 188 189 193 203 210 216 231 248 263 282 309 331 337 338 341 344 346 349 350 351 351 349 348 345 342 342 345 349 352 352 348 342 338 336 335 335 333 331 331 330 328 326 323 321 319 317 313 310 308 306
248 245 243 241 239 236 233 229 224 219 213 206 200 195 192 190 188 185 182 180 179 177 175 174 175 180 182 181 181 184 186 190 193 189 186 185 187 192 200 204 210 227 241 257 295 330 338 338 341 344 344 345 347 348 349 350 349 348 346 343 341 345 350 353 351 346 341 339 338 337 336 334 333 332 331 329 327 325 322 320 318 314 311 309 306
247 242 240 238 236 232 229 226 221 217 211 203 195 191 189 188 185 183 181 181 181 179 177 175 174 175 175 173 174 179 187 193 193 188 184 185 188 190 193 195 203 217 230 254 311 332 336 340 345 346 345 346 347 346 346 347 347 346 345 342 342 345 351 353 351 345 341 339 338 338 336 334 333 333 332 330 328 326 324 322 320 316 312 310 307
247 242 239 237 233 228 223 220 215 210 204 197 192 190 187 185 183 182 181 182 182 180 179 179 181 181 178 176 178 183 189 192 189 185 184 187 189 188 188 190 198 209 222 261 313 330 339 344 346 347 347 347 348 346 345 345 346 345 343 342 342 345 351 354 352 347 343 340 339 339 337 335 334 334 333 331 329 327 325 324 321 318 314 311 309
243 239 236 233 228 223 219 215 209 203 198 193 190 188 186 183 181 181 182 181 181 182 182 183 184 184 184 184 186 187 189 188 186 186 188 189 187 186 187 191 196 203 218 283 325 337 344 345 345 347 349 349 348 347 346 345 344 343 342 341 342 345 351 355 352 347 344 342 341 340 338 336 335 335 334 333 331 329 327 325 322 319 316 313 311
240 235 232 228 224 219 215 211 205 199 194 191 188 186 184 183 181 182 182 181 180 182 184 185 185 185 186 188 188 186 187 188 188 190 191 188 185 186 188 192 193 195 217 309 336 341 343 345 346 347 349 349 349 348 347 345 344 341 340 340 342 345 351 355 351 346 344 343 342 341 338 337 336 336 335 334 333 330 327 325 323 321 318 315 313
238 231 227 224 219 214 210 205 201 196 192 189 186 185 183 183 182 183 183 181 181 182 183 184 184 182 182 184 185 186 189 191 191 192 192 188 188 190 191 190 189 191 234 320 337 341 343 345 346 346 347 348 348 347 347 346 345 341 338 339 341 345 351 355 352 347 345 344 343 341 338 337 337 337 336 335 334 332 329 327 325 323 320 319 317
231 225 220 216 212 208 203 199 195 191 188 186 186 185 184 183 184 185 183 181 180 181 180 180 180 179 179 182 185 188 191 192 193 194 193 191 192 193 189 186 190 204 278 321 334 340 343 345 346 346 346 346 347 346 345 345 345 343 339 338 340 345 352 355 352 348 346 344 343 340 338 338 339 338 337 336 335 333 332 329 327 326 323 322 321
223 218 214 210 206 202 199 194 191 188 186 186 185 184 185 185 184 183 181 180 180 180 178 177 175 175 178 183 186 188 190 192 195 195 194 192 192 191 188 189 202 249 306 326 336 341 344 347 348 347 346 346 346 346 344 344 345 343 340 337 338 344 353 356 353 349 347 344 342 339 338 339 340 340 339 338 337 335 333 331 330 328 326 325 326
215 211 207 203 199 196 193 191 188 186 185 185 184 184 185 184 182 180 179 179 178 178 177 176 176 178 181 183 185 186 189 192 193 193 191 190 189 188 189 194 213 287 317 330 339 341 344 347 348 347 346 346 345 345 343 343 344 344 341 338 338 344 354 358 354 350 347 344 340 339 339 341 342 341 340 340 339 337 335 334 332 331 330 330 331
207 203 199 194 191 188 186 185 184 183 183 183 183 183 182 180 178 177 176 176 176 177 178 178 179 181 182 182 183 186 190 191 190 187 186 186 187 188 192 199 228 299 322 333 338 340 343 346 346 346 346 345 344 344 343 342 344 345 342 339 339 346 355 359 356 351 347 343 340 339 340 341 343 343 342 341 341 338 336 335 334 333 333 333 333
200 196 192 187 184 182 181 181 181 181 182 182 181 178 176 174 173 172 173 175 176 176 177 178 179 180 181 182 184 187 188 187 185 183 183 186 188 191 196 210 254 300 321 334 338 339 342 344 343 344 344 343 343 344 343 342 344 345 343 340 341 347 355 359 357 352 348 344 340 340 341 342 344 344 343 343 342 340 338 338 337 336 336 337 337
192 189 186 183 181 180 180 180 180 179 179 178 175 172 169 169 169 170 171 174 175 174 175 177 178 180 181 182 183 184 184 182 181 182 184 187 190 195 204 224 270 305 321 331 337 340 342 343 342 342 342 341 341 342 343 343 344 345 344 343 343 347 355 360 357 352 347 344 341 341 343 345 345 346 345 344 343 342 341 341 340 339 339 341 342
184 181 180 180 180 179 179 178 177 176 175 172 169 167 165 166 167 169 170 172 173 174 175 177 179 179 180 181 181 181 181 180 181 184 186 188 194 201 212 236 274 299 315 327 335 339 341 342 342 340 339 339 339 340 342 344 344 345 346 344 343 346 354 359 357 351 347 344 343 344 346 348 348 348 348 346 345 345 344 343 343 342 342 343 345
178 178 177 177 177 177 176 174 173 173 171 169 166 164 163 164 166 167 169 171 173 174 176 177 178 178 179 180 179 179 180 181 183 186 188 192 200 209 223 248 272 293 311 323 333 339 341 341 340 339 337 337 338 339 342 343 344 345 346 344 341 345 354 357 354 349 346 345 345 347 350 351 351 351 350 349 348 348 347 346 346 345 344 344 346
175 175 174 174 173 173 172 171 171 169 167 165 164 163 162 163 165 167 168 170 172 173 175 176 177 177 178 179 179 180 181 183 185 189 192 198 207 218 235 257 277 297 313 322 331 338 339 339 338 337 336 337 337 338 341 342 343 345 346 342 341 346 354 356 351 348 347 347 348 351 352 353 352 353 353 353 351 351 350 350 349 348 347 346 347
170 170 170 171 170 169 169 169 168 165 162 161 161 162 162 163 164 166 168 170 172 172 173 175 176 177 178 180 180 181 184 187 189 193 199 205 215 229 246 265 283 299 312 321 330 335 336 337 337 336 336 337 337 337 339 341 342 344 345 343 342 348 356 355 349 346 346 349 353 355 355 354 354 355 355 355 354 354 353 352 352 351 350 348 348